Main page
METAR-TAF:

METAR-TAF

Airports :

Tarvisio, Italy

latitude: 46-30N, longitude: 013-35E, elevation: 777 m

Current weather observation

The report was made 2 hours and 23 minutes ago, at 17:55 UTC
Calm wind
Temperature -3°C
Humidity 80%
Pressure 1017 hPa
Visibility 10 km or more
no clouds below 1500 m and no cumulonimbus

METAR: LIVO 121755Z 00000KT CAVOK M03/M06 Q1017 RMK SKC VIS MIN 9999

Time: 21:18 (20:18 UTC)


TAF: missing

Weather observations and forecasts of more than 4000 airports (METAR and TAF reports).

The available stations are represented by yellow and red dots on the map.

Hover mouse over dot to see the name of the station.

Then click to see weather observations and forecasts.

To change the map : click on the green buttons with a black cross to zoom in, on the green button with a dash to zoom out, or on the green arrows for adjacent maps.


METAR-TAF: